Aérodrome :
LOGIN :

S'inscrire | Disclaimer

   EN    FR    IT 

 










Légende :    VFR   VFR Marginal   IFR   IFR Intensif   IFR Très Intensif
Visi : 
Plafond : 
>= 8 km
>= 3000ft
5 à 8 km
1000 à 3000 ft
1500m à 5 km
500 à 1000 ft
800 à 1500m
200 à 500 ft
< 800m
< 200 ft
Symboles :   Orages  Brouillard  Fortes neiges  Fortes précipitations  Vent > 20 kt
SIGMETs :   Divers  Orages  Givrage  Turbulence  Onde Orograph.  Cendres Volcan.







- Altitude de l'aérodrome : 325 ft
- Code IATA : POX
- Voir les cartes d'approche


LFPT - Pontoise

DERNIER METAR :
  • 270300Z AUTO 30004KT CAVOK M01/M01 Q1018

METARs EXPIRÉS :
  • 270230Z AUTO 29003KT CAVOK M01/M02 Q1018
  • 270200Z AUTO 31005KT CAVOK M01/M01 Q1018
  • 270130Z AUTO 31006KT CAVOK M00/M01 Q1017
  • 270100Z AUTO 31006KT CAVOK M00/M01 Q1018
  • 270030Z AUTO 31004KT CAVOK M00/M01 Q1017

TAF N/A
ATIS : +33 1 30 30 52 08
Pas de NOTAMs connus pour ce terrain.



MET'MAP, la Météo Aéronautique d'un coup d'oeil ! - Copyright ORBIFLY Décembre 2007 - Disclaimer

ORBIFLY MET'MAP TEAM :

Programmation & Développement : Alexandra Zaïnal
Conception & Développement : Baudouin d'Aumeries
Co-Programmation & Développement : Marc-Olivier Méhu
Soutien technique & logistique : Manuel Goepfert

Contact : metmap@orbifly.com




SOURCES & CREDITS :

   NOAA